FW0324 Weather Reports


Display with metric or nautical units.
time (UTC)temp
F
wind
direction
speed
MPH
gust
MPH
rain 1hr
in
rain 24hr
in
rain mn
in
humidity
%
barometer
mb
20181114021547 40 303 3.0 11.0 0.00 0.27 0.15 93 1027.0
20181114020037 40 338 5.0 10.0 0.00 0.27 0.15 93 1027.0
20181114014528 40 325 3.0 7.0 0.00 0.42 0.15 93 1026.6
20181114013021 40 321 5.0 12.0 0.00 0.42 0.15 94 1027.0
20181114011515 40 346 3.0 11.0 0.00 0.42 0.15 93 1026.6
20181114010021 40 261 4.0 10.0 0.00 0.42 0.15 94 1026.6
20181114004518 40 299 5.0 11.0 0.00 0.46 0.15 93 1025.9
20181114003006 40 293 4.0 12.0 0.00 0.46 0.15 93 1026.0
20181114000138 41 284 0.0 9.0 0.00 0.46 0.15 93 1025.6
20181113234650 41 39 5.0 13.0 0.00 0.46 0.15 92 1025.7
20181113233240 41 6 5.0 11.0 0.00 0.46 0.15 92 1025.2
20181113231708 42 17 2.0 8.0 0.00 0.46 0.15 92 1025.1
20181113224634 42 313 3.0 10.0 0.00 0.48 0.15 91 1025.2
20181113223120 42 348 2.0 9.0 0.00 0.48 0.15 92 1025.5
20181113221646 42 21 6.0 11.0 0.00 0.48 0.15 91 1025.6
20181113220103 42 282 2.0 11.0 0.00 0.48 0.15 92 1025.3
20181113214608 42 359 3.0 10.0 0.00 0.64 0.15 91 1025.2
20181113213059 42 304 1.0 9.0 0.00 0.64 0.15 92 1025.0
20181113211624 42 360 3.0 13.0 0.00 0.64 0.15 92 1024.9
20181113210138 42 235 4.0 13.0 0.00 0.64 0.15 92 1024.6
20181113204629 42 349 4.0 13.0 0.00 0.66 0.15 92 1024.7
20181113203043 43 291 2.0 14.0 0.00 0.66 0.15 92 1025.3
20181113201554 42 353 5.0 14.0 0.00 0.66 0.15 92 1024.7
20181113200043 42 282 3.0 13.0 0.00 0.66 0.15 94 1025.0
20181113194605 42 284 5.0 15.0 0.00 1.11 0.15 94 1024.7
20181113193108 42 348 4.0 8.0 0.00 1.11 0.15 94 1024.3
20181113191624 42 22 5.0 13.0 0.00 1.11 0.15 94 1024.2
20181113190102 43 307 6.0 14.0 0.00 1.11 0.15 94 1023.9
20181113184615 43 346 5.0 14.0 0.00 1.22 0.15 94 1024.2
20181113183023 43 313 5.0 14.0 0.00 1.22 0.15 94 1024.7
20181113181531 44 322 3.0 7.0 0.00 1.22 0.15 94 1025.0
20181113180024 44 342 3.0 12.0 0.00 1.22 0.15 94 1025.4
20181113174533 44 296 5.0 11.0 0.00 1.67 0.15 94 1025.2
20181113173030 44 31 6.0 12.0 0.00 1.67 0.15 94 1024.9
20181113171523 44 336 5.0 14.0 0.00 1.67 0.15 94 1025.2
20181113170054 44 49 4.0 9.0 0.00 1.67 0.15 95 1025.0
20181113163045 44 350 3.0 13.0 0.00 1.67 0.15 95 1025.2
20181113161525 44 288 4.0 12.0 0.00 1.67 0.15 94 1025.0
20181113160021 44 299 1.0 6.0 0.00 1.67 0.15 95 1025.3
20181113154524 44 301 2.0 7.0 0.01 1.67 0.15 95 1024.8
20181113153028 44 316 4.0 11.0 0.01 1.67 0.15 95 1025.0
20181113151512 44 322 2.0 9.0 0.01 1.67 0.15 96 1024.2
20181113150008 43 308 4.0 11.0 0.02 1.67 0.15 96 1024.5
20181113144510 43 313 4.0 16.0 0.01 1.66 0.14 96 1024.2
20181113143004 44 315 3.0 11.0 0.02 1.66 0.14 96 1023.4
20181113141501 44 282 2.0 10.0 0.02 1.66 0.14 95 1023.9
20181113140257 44 358 3.0 10.0 0.01 1.65 0.13 95 1023.8
20181113134700 44 32 2.0 13.0 0.01 1.65 0.13 95 1022.7
20181113133229 44 6 1.0 15.0 0.00 1.64 0.12 95 1022.6
20181113131612 44 289 1.0 9.0 0.00 1.64 0.12 96 1023.3
20181113130201 44 324 4.0 13.0 0.01 1.64 0.12 95 1022.9
20181113124659 44 355 3.0 13.0 0.01 1.64 0.12 96 1022.2
20181113123125 44 294 5.0 11.0 0.01 1.64 0.12 96 1022.6
20181113121804 44 334 2.0 12.0 0.01 1.64 0.12 96 1022.1
20181113120051 45 332 5.0 12.0 0.00 1.63 0.11 96 1021.9
20181113114550 45 14 4.0 12.0 0.00 1.63 0.11 96 1022.2
20181113113120 45 336 1.0 12.0 0.00 1.63 0.11 96 1021.6
20181113111557 45 3 5.0 18.0 0.00 1.63 0.11 96 1021.8
20181113110047 45 268 4.0 12.0 0.00 1.63 0.11 97 1021.5
20181113104629 45 31 4.0 10.0 0.00 1.63 0.11 97 1021.1
20181113103129 46 276 4.0 14.0 0.00 1.63 0.11 97 1021.3
20181113101558 46 282 4.0 9.0 0.01 1.63 0.11 97 1021.0
20181113100058 46 315 3.0 10.0 0.01 1.63 0.11 97 1020.7
20181113094536 46 321 4.0 12.0 0.02 1.63 0.11 97 1020.8
20181113093026 47 34 4.0 11.0 0.03 1.63 0.11 97 1020.7
20181113091527 47 292 2.0 10.0 0.02 1.62 0.10 97 1021.0
20181113090100 47 252 2.0 13.0 0.03 1.62 0.10 97 1021.1
20181113084516 48 275 3.0 11.0 0.05 2.00 0.09 97 1020.9
20181113083020 49 266 2.0 7.0 0.07 1.99 0.08 97 1020.3
20181113080009 49 275 1.0 11.0 0.06 1.97 0.06 97 1020.4
20181113073203 51 271 2.0 12.0 0.01 2.00 0.01 97 1020.0
20181113071739 51 354 3.0 7.0 0.00 2.00 0.00 97 1019.0
20181113070112 52 257 2.0 10.0 0.00 2.00 0.00 97 1019.8
20181113064627 53 14 6.0 15.0 0.00 2.00 0.00 97 1018.9
20181113063134 53 284 2.0 14.0 0.01 2.00 0.00 98 1019.3
20181113061656 53 286 3.0 11.0 0.01 2.00 0.00 98 1018.4
20181113060030 54 278 2.0 7.0 0.03 2.00 0.00 98 1018.4
20181113054530 54 318 1.0 8.0 0.04 2.00 2.00 98 1018.1
20181113053023 54 256 1.0 6.0 0.03 1.99 1.99 98 1017.9
20181113051523 54 291 0.0 6.0 0.04 1.99 1.99 98 1018.0
20181113050028 54 323 1.0 5.0 0.02 1.97 1.97 98 1018.6
20181113044510 55 324 1.0 3.0 0.01 1.96 1.96 98 1018.9
20181113043009 55 324 1.0 5.0 0.03 1.96 1.96 98 1018.7
20181113041530 55 306 1.0 6.0 0.04 1.95 1.95 98 1018.6
20181113040015 55 280 0.0 8.0 0.04 1.95 1.95 98 1018.4
20181113034507 55 287 1.0 7.0 0.04 1.96 1.95 98 1017.7
20181113033008 55 281 1.0 8.0 0.02 1.94 1.93 98 1018.8
20181113031517 55 282 2.0 11.0 0.01 1.92 1.91 98 1018.3
20181113030002 56 318 4.0 12.0 0.03 1.92 1.91 98 1017.2
20181113024618 56 302 4.0 14.0 0.05 1.92 1.91 99 1016.3
20181113023248 56 280 3.0 10.0 0.10 1.92 1.91 99 1016.9